This demonstration page uses our WeatherBlox Daily Observations layout. Learn more.

Left ArrowRight Arrow

53.62937, 11.41316

Hourly Observations for January 25, 2020

Temp ( °F °C ) Dew Point ( °F °C ) Humidity (%) Winds ( mph kmh ) Pressure ( in mb ) Visibility ( mi km ) Precip ( " mm )
6:50 am 06:50 Cloudy with Drizzle 36 2 36 2 100 100 WSW 8 13 30.09 1019 2 4 N/A
7:20 am 07:20 Cloudy with Drizzle 36 2 36 2 100 100 SW 7 11 30.09 1019 2 3 N/A
7:50 am 07:50 Cloudy with Drizzle 37 3 36 2 93 93 SW 8 13 30.09 1019 2 4 N/A
8:20 am 08:20 Cloudy with Mist and Fog 37 3 36 2 93 93 WSW 8 13 30.12 1020 2 4 N/A
8:50 am 08:50 Cloudy with Mist and Fog 37 3 36 2 93 93 SW 6 9 30.12 1020 2 4 N/A
9:20 am 09:20 Cloudy with Mist and Fog 37 3 36 2 93 93 SW 7 11 30.12 1020 2 4 N/A
9:50 am 09:50 Cloudy with Mist and Fog 37 3 36 2 93 93 WSW 8 13 30.12 1020 2 4 N/A
10:20 am 10:20 Cloudy with Mist and Fog 37 3 36 2 93 93 WSW 8 13 30.12 1020 2 3 N/A
10:50 am 10:50 Cloudy 37 3 36 2 93 93 WSW 8 13 30.15 1021 4 6 N/A
11:20 am 11:20 Cloudy 37 3 37 3 100 100 WSW 9 15 30.15 1021 4 7 N/A
11:50 am 11:50 Cloudy 39 4 37 3 93 93 WSW 8 13 30.15 1021 4 7 N/A
12:20 pm 12:20 Cloudy 39 4 37 3 93 93 WSW 8 13 30.12 1020 4 7 N/A
12:50 pm 12:50 Cloudy 39 4 37 3 93 93 WSW 8 13 30.12 1020 5 8 N/A
1:20 pm 13:20 Cloudy 39 4 37 3 93 93 WSW 8 13 30.12 1020 5 8 N/A
1:50 pm 13:50 Cloudy 39 4 37 3 93 93 WSW 8 13 30.12 1020 4 7 N/A
2:20 pm 14:20 Cloudy 39 4 37 3 93 93 WSW 7 11 30.12 1020 5 8 N/A
2:50 pm 14:50 Cloudy 39 4 37 3 93 93 WSW 8 13 30.12 1020 3 5 N/A
3:20 pm 15:20 Cloudy 39 4 37 3 93 93 SW 7 11 30.12 1020 4 6 N/A
3:50 pm 15:50 Cloudy with Mist and Fog 39 4 37 3 93 93 SW 7 11 30.12 1020 3 5 N/A
4:20 pm 16:20 Cloudy with Mist and Fog 39 4 37 3 93 93 SW 8 13 30.09 1019 3 5 N/A
4:50 pm 16:50 Cloudy with Mist and Fog 39 4 37 3 93 93 SW 7 11 30.09 1019 3 5 N/A
5:20 pm 17:20 Cloudy with Mist and Fog 39 4 36 2 87 87 W 8 13 30.09 1019 3 5 N/A
5:50 pm 17:50 Cloudy 39 4 37 3 93 93 SW 6 9 30.12 1020 4 6 N/A
6:20 pm 18:20 Cloudy 37 3 37 3 100 100 SW 6 9 30.12 1020 4 6 N/A
6:50 pm 18:50 Cloudy with Mist and Fog 37 3 37 3 100 100 SW 7 11 30.12 1020 4 6 N/A
7:20 pm 19:20 Cloudy with Mist and Fog 37 3 36 2 93 93 SW 8 13 30.09 1019 3 5 N/A
7:50 pm 19:50 Cloudy with Mist and Fog 37 3 36 2 93 93 SW 7 11 30.12 1020 3 5 N/A

Powered by AerisWeather